Time,TemperatureF,DewpointF,PressureIn,WindDirection,WindDirectionDegrees,WindSpeedMPH,WindSpeedGustMPH,Humidity,HourlyPrecipIn,Conditions,Clouds,dailyrainin,SoftwareType,DateUTC
2013-07-31 00:01:00,67.0,61.3,30.14,SW,236,0.0,0.0,82,0.00,,---,0.00,VWS V14.01,2013-07-31 04:01:00,
2013-07-31 00:02:00,67.0,61.3,30.14,SW,236,0.0,0.0,82,0.00,,---,0.00,VWS V14.01,2013-07-31 04:02:00,
2013-07-31 00:03:00,67.0,61.3,30.14,SW,236,0.0,0.0,82,0.00,,---,0.00,VWS V14.01,2013-07-31 04:03:00,
2013-07-31 00:08:00,67.0,61.7,30.14,SW,236,0.0,0.0,83,0.00,,---,0.00,VWS V14.01,2013-07-31 04:08:00,
2013-07-31 00:13:00,66.9,61.6,30.14,SW,236,0.0,0.0,83,0.00,,---,0.00,VWS V14.01,2013-07-31 04:13:00,
2013-07-31 00:18:00,66.9,61.6,30.14,SW,236,0.0,0.0,83,0.00,,---,0.00,VWS V14.01,2013-07-31 04:18:00,
2013-07-31 00:24:00,66.9,61.6,30.14,SW,236,0.0,0.0,83,0.00,,---,0.00,VWS V14.01,2013-07-31 04:24:00,
2013-07-31 00:29:00,66.9,61.6,30.14,SW,236,0.0,0.0,83,0.00,,---,0.00,VWS V14.01,2013-07-31 04:29:00,
2013-07-31 00:34:00,66.9,61.6,30.14,SW,236,0.0,0.0,83,0.00,,---,0.00,VWS V14.01,2013-07-31 04:34:00,
2013-07-31 00:39:00,66.8,61.5,30.14,SW,236,0.0,0.0,83,0.00,,---,0.00,VWS V14.01,2013-07-31 04:39:00,
2013-07-31 00:44:00,66.8,61.5,30.14,SW,236,0.0,0.0,83,0.00,,---,0.00,VWS V14.01,2013-07-31 04:44:00,
2013-07-31 00:49:00,66.8,61.5,30.14,SW,236,0.0,0.0,83,0.00,,---,0.00,VWS V14.01,2013-07-31 04:49:00,
2013-07-31 00:54:00,66.8,61.5,30.14,SW,236,0.0,0.0,83,0.00,,---,0.00,VWS V14.01,2013-07-31 04:54:00,
2013-07-31 00:59:00,66.7,61.4,30.14,SW,236,0.0,0.0,83,0.00,,---,0.00,VWS V14.01,2013-07-31 04:59:00,
2013-07-31 01:04:00,66.7,61.4,30.14,SW,236,0.0,0.0,83,0.00,,---,0.00,VWS V14.01,2013-07-31 05:04:00,
2013-07-31 01:09:00,66.7,61.0,30.14,SW,236,0.0,0.0,82,0.00,,---,0.00,VWS V14.01,2013-07-31 05:09:00,
2013-07-31 01:14:00,66.7,61.0,30.14,SW,236,0.0,0.0,82,0.00,,---,0.00,VWS V14.01,2013-07-31 05:14:00,
2013-07-31 01:19:00,66.7,61.0,30.14,SW,236,0.0,0.0,82,0.00,,---,0.00,VWS V14.01,2013-07-31 05:19:00,
2013-07-31 01:24:00,66.7,61.0,30.14,SW,236,0.0,0.0,82,0.00,,---,0.00,VWS V14.01,2013-07-31 05:24:00,
2013-07-31 01:30:00,66.7,60.7,30.14,SW,236,0.0,0.0,81,0.00,,---,0.00,VWS V14.01,2013-07-31 05:30:00,
2013-07-31 01:35:00,66.7,60.7,30.14,SW,236,0.0,0.0,81,0.00,,---,0.00,VWS V14.01,2013-07-31 05:35:00,
2013-07-31 01:40:00,66.7,60.3,30.14,SW,236,0.0,0.0,80,0.00,,---,0.00,VWS V14.01,2013-07-31 05:40:00,
2013-07-31 01:45:00,66.8,60.4,30.14,SW,236,0.0,0.0,80,0.00,,---,0.00,VWS V14.01,2013-07-31 05:45:00,
2013-07-31 01:50:00,66.7,60.3,30.14,SW,236,0.0,0.0,80,0.00,,---,0.00,VWS V14.01,2013-07-31 05:50:00,
2013-07-31 01:55:00,66.7,60.3,30.14,SW,236,0.0,0.0,80,0.00,,---,0.00,VWS V14.01,2013-07-31 05:55:00,
2013-07-31 02:01:00,66.6,60.2,30.14,SW,236,0.0,0.0,80,0.00,,---,0.00,VWS V14.01,2013-07-31 06:01:00,
2013-07-31 02:06:00,66.6,60.2,30.14,SW,236,0.0,0.0,80,0.00,,---,0.00,VWS V14.01,2013-07-31 06:06:00,
2013-07-31 02:11:00,66.6,60.2,30.14,SW,236,0.0,0.0,80,0.00,,---,0.00,VWS V14.01,2013-07-31 06:11:00,
2013-07-31 02:16:00,66.5,60.2,30.14,SW,236,0.0,0.0,80,0.00,,---,0.00,VWS V14.01,2013-07-31 06:16:00,
2013-07-31 02:21:00,66.5,60.2,30.14,SW,236,0.0,0.0,80,0.00,,---,0.00,VWS V14.01,2013-07-31 06:21:00,
2013-07-31 02:26:00,66.4,60.0,30.14,SW,236,0.0,0.0,80,0.00,,---,0.00,VWS V14.01,2013-07-31 06:26:00,
2013-07-31 02:31:00,66.4,60.0,30.14,SW,236,0.0,0.0,80,0.00,,---,0.00,VWS V14.01,2013-07-31 06:31:00,
2013-07-31 02:36:00,66.3,60.0,30.14,SW,236,0.0,0.0,80,0.00,,---,0.00,VWS V14.01,2013-07-31 06:36:00,
2013-07-31 02:41:00,66.3,60.0,30.14,SW,236,0.0,0.0,80,0.00,,---,0.00,VWS V14.01,2013-07-31 06:41:00,
2013-07-31 02:46:00,66.3,60.0,30.14,SW,236,0.0,0.0,80,0.00,,---,0.00,VWS V14.01,2013-07-31 06:46:00,
2013-07-31 02:52:00,66.3,60.3,30.14,SW,236,0.0,0.0,81,0.00,,---,0.00,VWS V14.01,2013-07-31 06:52:00,
2013-07-31 02:57:00,66.3,60.3,30.14,SW,236,0.0,0.0,81,0.00,,---,0.00,VWS V14.01,2013-07-31 06:57:00,
2013-07-31 03:02:00,66.3,60.3,30.14,SW,236,0.0,0.0,81,0.00,,---,0.00,VWS V14.01,2013-07-31 07:02:00,
2013-07-31 03:07:00,66.2,60.5,30.14,SW,236,0.0,0.0,82,0.00,,---,0.00,VWS V14.01,2013-07-31 07:07:00,
2013-07-31 03:12:00,66.3,60.7,30.13,SW,236,0.0,0.0,82,0.00,,---,0.00,VWS V14.01,2013-07-31 07:12:00,
2013-07-31 03:17:00,66.3,61.0,30.14,SW,236,0.0,0.0,83,0.00,,---,0.00,VWS V14.01,2013-07-31 07:17:00,
2013-07-31 03:22:00,66.3,61.0,30.13,SW,236,0.0,0.0,83,0.00,,---,0.00,VWS V14.01,2013-07-31 07:22:00,
2013-07-31 03:27:00,66.4,61.1,30.13,SW,236,0.0,0.0,83,0.00,,---,0.00,VWS V14.01,2013-07-31 07:27:00,
2013-07-31 03:32:00,66.4,61.1,30.13,SW,236,0.0,0.0,83,0.00,,---,0.00,VWS V14.01,2013-07-31 07:32:00,
2013-07-31 03:37:00,66.5,61.2,30.13,SW,236,0.0,0.0,83,0.00,,---,0.00,VWS V14.01,2013-07-31 07:37:00,
2013-07-31 03:43:00,66.5,61.5,30.13,SW,236,0.0,0.0,84,0.00,,---,0.00,VWS V14.01,2013-07-31 07:43:00,
2013-07-31 03:48:00,66.4,61.4,30.13,SW,236,0.0,0.0,84,0.00,,---,0.00,VWS V14.01,2013-07-31 07:48:00,
2013-07-31 03:53:00,66.3,61.3,30.13,SW,236,0.0,0.0,84,0.00,,---,0.00,VWS V14.01,2013-07-31 07:53:00,
2013-07-31 03:58:00,66.2,61.2,30.13,SW,236,0.0,0.0,84,0.00,,---,0.00,VWS V14.01,2013-07-31 07:58:00,
2013-07-31 04:03:00,66.1,61.5,30.13,SW,236,0.0,0.0,85,0.00,,---,0.00,VWS V14.01,2013-07-31 08:03:00,
2013-07-31 04:08:00,66.0,61.4,30.13,SW,236,0.0,0.0,85,0.00,,---,0.00,VWS V14.01,2013-07-31 08:08:00,
2013-07-31 04:13:00,66.0,61.4,30.13,SW,236,0.0,0.0,85,0.00,,---,0.00,VWS V14.01,2013-07-31 08:13:00,
2013-07-31 04:18:00,66.0,61.4,30.13,SW,236,0.0,0.0,85,0.00,,---,0.00,VWS V14.01,2013-07-31 08:18:00,
2013-07-31 04:23:00,65.9,61.3,30.13,SW,236,0.0,0.0,85,0.00,,---,0.00,VWS V14.01,2013-07-31 08:23:00,
2013-07-31 04:28:00,66.0,61.4,30.13,SW,236,0.0,0.0,85,0.00,,---,0.00,VWS V14.01,2013-07-31 08:28:00,
2013-07-31 04:33:00,66.0,61.4,30.13,SW,236,0.0,0.0,85,0.00,,---,0.00,VWS V14.01,2013-07-31 08:33:00,
2013-07-31 04:38:00,66.0,61.4,30.13,SW,236,0.0,0.0,85,0.00,,---,0.00,VWS V14.01,2013-07-31 08:38:00,
2013-07-31 04:44:00,65.9,61.3,30.13,SW,236,0.0,0.0,85,0.00,,---,0.00,VWS V14.01,2013-07-31 08:44:00,
2013-07-31 04:49:00,65.9,61.3,30.13,SW,236,0.0,0.0,85,0.00,,---,0.00,VWS V14.01,2013-07-31 08:49:00,
2013-07-31 04:54:00,65.7,61.1,30.13,WSW,237,0.0,0.0,85,0.00,,---,0.00,VWS V14.01,2013-07-31 08:54:00,
2013-07-31 04:59:00,65.6,61.0,30.13,SW,236,0.0,0.0,85,0.00,,---,0.00,VWS V14.01,2013-07-31 08:59:00,
2013-07-31 05:04:00,65.5,61.2,30.12,SW,236,0.0,0.0,86,0.00,,---,0.00,VWS V14.01,2013-07-31 09:04:00,
2013-07-31 05:09:00,65.4,61.1,30.13,SW,236,0.0,0.0,86,0.00,,---,0.00,VWS V14.01,2013-07-31 09:09:00,
2013-07-31 05:14:00,65.2,60.9,30.12,SW,236,0.0,0.0,86,0.00,,---,0.00,VWS V14.01,2013-07-31 09:14:00,
2013-07-31 05:19:00,65.1,60.8,30.12,SW,236,0.0,0.0,86,0.00,,---,0.00,VWS V14.01,2013-07-31 09:19:00,
2013-07-31 05:25:00,65.0,61.0,30.12,SW,236,0.0,0.0,87,0.00,,---,0.00,VWS V14.01,2013-07-31 09:25:00,
2013-07-31 05:30:00,64.9,60.6,30.12,WSW,237,0.0,0.0,86,0.00,,---,0.00,VWS V14.01,2013-07-31 09:30:00,
2013-07-31 05:35:00,64.8,60.8,30.13,SW,236,0.0,0.0,87,0.00,,---,0.00,VWS V14.01,2013-07-31 09:35:00,
2013-07-31 05:40:00,64.7,60.8,30.13,SW,236,0.0,0.0,87,0.00,,---,0.00,VWS V14.01,2013-07-31 09:40:00,
2013-07-31 05:45:00,64.5,60.5,30.13,SW,236,0.0,0.0,87,0.00,,---,0.00,VWS V14.01,2013-07-31 09:45:00,
2013-07-31 05:50:00,64.4,60.5,30.13,SW,236,0.0,0.0,87,0.00,,---,0.00,VWS V14.01,2013-07-31 09:50:00,
2013-07-31 05:55:00,64.3,60.3,30.13,SW,236,0.0,0.0,87,0.00,,---,0.00,VWS V14.01,2013-07-31 09:55:00,
2013-07-31 06:01:00,64.3,60.7,30.13,SW,236,0.0,0.0,88,0.00,,---,0.00,VWS V14.01,2013-07-31 10:01:00,
2013-07-31 06:06:00,64.2,60.6,30.13,WSW,237,0.0,0.0,88,0.00,,---,0.00,VWS V14.01,2013-07-31 10:06:00,
2013-07-31 06:11:00,64.1,60.5,30.13,SW,236,0.0,0.0,88,0.00,,---,0.00,VWS V14.01,2013-07-31 10:11:00,
2013-07-31 06:16:00,64.0,60.4,30.13,SW,236,0.0,0.0,88,0.00,,---,0.00,VWS V14.01,2013-07-31 10:16:00,
2013-07-31 06:21:00,63.9,60.6,30.13,SW,236,0.0,0.0,89,0.00,,---,0.00,VWS V14.01,2013-07-31 10:21:00,
2013-07-31 06:26:00,63.9,60.6,30.13,SW,236,0.0,0.0,89,0.00,,---,0.00,VWS V14.01,2013-07-31 10:26:00,
2013-07-31 06:31:00,63.9,60.6,30.13,SW,236,0.0,0.0,89,0.00,,---,0.00,VWS V14.01,2013-07-31 10:31:00,
2013-07-31 06:36:00,63.9,60.6,30.13,SW,236,0.0,0.0,89,0.00,,---,0.00,VWS V14.01,2013-07-31 10:36:00,
2013-07-31 06:42:00,63.9,60.6,30.14,SW,236,0.0,0.0,89,0.00,,---,0.00,VWS V14.01,2013-07-31 10:42:00,
2013-07-31 06:47:00,64.0,60.7,30.14,SW,236,0.0,0.0,89,0.00,,---,0.00,VWS V14.01,2013-07-31 10:47:00,
2013-07-31 06:52:00,64.0,60.7,30.14,SW,236,0.0,0.0,89,0.00,,---,0.00,VWS V14.01,2013-07-31 10:52:00,
2013-07-31 06:57:00,64.1,60.8,30.13,SW,236,0.0,0.0,89,0.00,,---,0.00,VWS V14.01,2013-07-31 10:57:00,
2013-07-31 07:02:00,64.1,61.1,30.13,SW,236,0.0,0.0,90,0.00,,---,0.00,VWS V14.01,2013-07-31 11:02:00,
2013-07-31 07:07:00,64.2,61.2,30.13,SW,236,0.0,0.0,90,0.00,,---,0.00,VWS V14.01,2013-07-31 11:07:00,
2013-07-31 07:12:00,64.3,61.3,30.13,SW,236,0.0,0.0,90,0.00,,---,0.00,VWS V14.01,2013-07-31 11:12:00,
2013-07-31 07:18:00,64.4,61.4,30.14,SW,236,0.0,0.0,90,0.00,,---,0.00,VWS V14.01,2013-07-31 11:18:00,
2013-07-31 07:23:00,64.5,61.5,30.14,SW,236,0.0,0.0,90,0.00,,---,0.00,VWS V14.01,2013-07-31 11:23:00,
2013-07-31 07:28:00,64.7,61.7,30.13,SW,236,0.0,0.0,90,0.00,,---,0.00,VWS V14.01,2013-07-31 11:28:00,
2013-07-31 07:33:00,65.0,62.0,30.13,SW,236,0.0,0.0,90,0.00,,---,0.00,VWS V14.01,2013-07-31 11:33:00,
2013-07-31 07:38:00,65.2,62.2,30.13,WSW,237,0.0,0.0,90,0.00,,---,0.00,VWS V14.01,2013-07-31 11:38:00,
2013-07-31 07:43:00,65.5,62.5,30.13,SW,236,0.0,0.0,90,0.00,,---,0.00,VWS V14.01,2013-07-31 11:43:00,
2013-07-31 07:48:00,65.6,62.6,30.13,SW,236,0.0,0.0,90,0.00,,---,0.00,VWS V14.01,2013-07-31 11:48:00,
2013-07-31 07:53:00,65.9,62.6,30.13,SW,236,0.0,0.0,89,0.00,,---,0.00,VWS V14.01,2013-07-31 11:53:00,
2013-07-31 07:58:00,66.0,62.7,30.13,SW,236,0.0,0.0,89,0.00,,---,0.00,VWS V14.01,2013-07-31 11:58:00,
2013-07-31 08:03:00,66.2,62.9,30.13,SW,236,0.0,0.0,89,0.00,,---,0.00,VWS V14.01,2013-07-31 12:03:00,
2013-07-31 08:08:00,66.4,63.4,30.13,SW,236,0.0,0.0,90,0.00,,---,0.00,VWS V14.01,2013-07-31 12:08:00,
2013-07-31 08:13:00,66.5,63.2,30.13,SW,236,0.0,0.0,89,0.00,,---,0.00,VWS V14.01,2013-07-31 12:13:00,
2013-07-31 08:18:00,66.7,63.7,30.13,SW,236,0.0,0.0,90,0.00,,---,0.00,VWS V14.01,2013-07-31 12:18:00,
2013-07-31 08:23:00,66.9,63.6,30.13,SW,236,0.0,0.0,89,0.00,,---,0.00,VWS V14.01,2013-07-31 12:23:00,
2013-07-31 08:28:00,67.0,63.7,30.14,SW,236,0.0,0.0,89,0.00,,---,0.00,VWS V14.01,2013-07-31 12:28:00,
2013-07-31 08:33:00,67.1,64.1,30.14,SW,236,0.0,0.0,90,0.00,,---,0.00,VWS V14.01,2013-07-31 12:33:00,
2013-07-31 08:38:00,67.1,63.8,30.14,WSW,237,0.0,0.0,89,0.00,,---,0.00,VWS V14.01,2013-07-31 12:38:00,
2013-07-31 08:43:00,67.1,63.8,30.14,SW,236,0.0,0.0,89,0.00,,---,0.00,VWS V14.01,2013-07-31 12:43:00,
2013-07-31 08:48:00,67.2,63.5,30.14,SW,236,0.0,0.0,88,0.00,,---,0.00,VWS V14.01,2013-07-31 12:48:00,
2013-07-31 08:53:00,67.4,64.1,30.14,SW,235,0.0,0.0,89,0.00,,---,0.00,VWS V14.01,2013-07-31 12:53:00,
2013-07-31 08:58:00,67.5,64.2,30.14,SW,235,0.0,0.0,89,0.00,,---,0.00,VWS V14.01,2013-07-31 12:58:00,
2013-07-31 09:03:00,67.5,63.8,30.14,SW,236,0.0,0.0,88,0.00,,---,0.00,VWS V14.01,2013-07-31 13:03:00,
2013-07-31 09:09:00,67.8,64.1,30.14,SSW,198,0.0,0.0,88,0.00,,---,0.00,VWS V14.01,2013-07-31 13:09:00,
2013-07-31 09:14:00,68.1,64.4,30.13,SSW,198,0.0,0.0,88,0.00,,---,0.00,VWS V14.01,2013-07-31 13:14:00,
2013-07-31 09:19:00,68.2,64.5,30.14,SSE,150,0.0,0.0,88,0.00,,---,0.00,VWS V14.01,2013-07-31 13:19:00,
2013-07-31 09:24:00,68.4,64.4,30.13,SSE,149,0.0,0.0,87,0.00,,---,0.00,VWS V14.01,2013-07-31 13:24:00,
2013-07-31 09:29:00,68.5,64.2,30.13,SSE,150,0.0,0.0,86,0.00,,---,0.00,VWS V14.01,2013-07-31 13:29:00,
2013-07-31 09:34:00,68.6,64.2,30.13,SSE,149,0.0,0.0,86,0.00,,---,0.00,VWS V14.01,2013-07-31 13:34:00,
2013-07-31 09:39:00,68.7,64.3,30.13,SSE,150,0.0,0.0,86,0.00,,---,0.00,VWS V14.01,2013-07-31 13:39:00,
2013-07-31 09:44:00,68.8,64.8,30.13,SSE,150,0.0,0.0,87,0.00,,---,0.00,VWS V14.01,2013-07-31 13:44:00,
2013-07-31 09:49:00,68.9,64.9,30.13,SSE,150,0.0,0.0,87,0.00,,---,0.00,VWS V14.01,2013-07-31 13:49:00,
2013-07-31 09:54:00,69.0,65.0,30.13,SSE,150,0.0,0.0,87,0.00,,---,0.00,VWS V14.01,2013-07-31 13:54:00,
2013-07-31 09:59:00,69.1,65.1,30.13,SSE,149,0.0,0.0,87,0.00,,---,0.00,VWS V14.01,2013-07-31 13:59:00,
2013-07-31 10:04:00,69.1,65.1,30.13,SSE,149,0.0,0.0,87,0.00,,---,0.00,VWS V14.01,2013-07-31 14:04:00,
2013-07-31 10:09:00,69.3,65.3,30.13,SSE,150,0.0,0.0,87,0.00,,---,0.00,VWS V14.01,2013-07-31 14:09:00,
2013-07-31 10:14:00,69.4,65.4,30.13,SSE,149,0.0,0.0,87,0.00,,---,0.00,VWS V14.01,2013-07-31 14:14:00,
2013-07-31 10:19:00,69.7,65.7,30.13,SSE,149,0.0,0.0,87,0.00,,---,0.00,VWS V14.01,2013-07-31 14:19:00,
2013-07-31 10:24:00,69.9,65.9,30.13,SSE,149,0.0,0.0,87,0.00,,---,0.00,VWS V14.01,2013-07-31 14:24:00,
2013-07-31 10:30:00,70.1,65.7,30.13,SSE,149,0.0,0.0,86,0.00,,---,0.00,VWS V14.01,2013-07-31 14:30:00,
2013-07-31 10:35:00,70.3,65.9,30.13,SSE,149,0.0,0.0,86,0.00,,---,0.00,VWS V14.01,2013-07-31 14:35:00,
2013-07-31 10:40:00,70.3,65.9,30.13,SSE,149,0.0,0.0,86,0.00,,---,0.00,VWS V14.01,2013-07-31 14:40:00,
2013-07-31 10:45:00,70.2,65.5,30.13,SSE,149,0.0,0.0,85,0.00,,---,0.00,VWS V14.01,2013-07-31 14:45:00,
2013-07-31 10:50:00,70.2,65.8,30.13,SSE,149,0.0,0.0,86,0.00,,---,0.00,VWS V14.01,2013-07-31 14:50:00,
2013-07-31 10:55:00,70.2,65.8,30.13,SSE,150,0.0,0.0,86,0.00,,---,0.00,VWS V14.01,2013-07-31 14:55:00,
2013-07-31 11:00:00,70.3,66.2,30.12,SSE,150,0.0,0.0,87,0.00,,---,0.00,VWS V14.01,2013-07-31 15:00:00,
2013-07-31 11:06:00,70.5,66.1,30.12,SSE,150,0.0,0.0,86,0.00,,---,0.00,VWS V14.01,2013-07-31 15:06:00,
2013-07-31 11:11:00,70.5,66.4,30.12,SSE,150,0.0,0.0,87,0.00,,---,0.00,VWS V14.01,2013-07-31 15:11:00,
2013-07-31 11:16:00,70.6,66.2,30.12,SSE,150,0.0,0.0,86,0.00,,---,0.00,VWS V14.01,2013-07-31 15:16:00,
2013-07-31 11:21:00,70.8,66.4,30.12,SSE,149,0.0,0.0,86,0.00,,---,0.00,VWS V14.01,2013-07-31 15:21:00,
2013-07-31 11:26:00,70.8,66.7,30.12,SSE,150,0.0,0.0,87,0.00,,---,0.00,VWS V14.01,2013-07-31 15:26:00,
2013-07-31 11:32:00,70.8,66.7,30.12,SSE,150,0.0,0.0,87,0.00,,---,0.00,VWS V14.01,2013-07-31 15:32:00,
2013-07-31 11:37:00,70.7,66.7,30.12,SSE,150,0.0,0.0,87,0.00,,---,0.00,VWS V14.01,2013-07-31 15:37:00,
2013-07-31 11:42:00,70.6,66.6,30.12,SSE,150,0.0,0.0,87,0.00,,---,0.00,VWS V14.01,2013-07-31 15:42:00,
2013-07-31 11:47:00,70.6,66.6,30.12,SSE,150,0.0,0.0,87,0.00,,---,0.00,VWS V14.01,2013-07-31 15:47:00,
2013-07-31 11:52:00,70.5,66.4,30.12,SSE,149,0.0,0.0,87,0.00,,---,0.00,VWS V14.01,2013-07-31 15:52:00,
2013-07-31 11:53:00,70.5,66.4,30.12,SSE,149,0.0,0.0,87,0.00,,---,0.00,VWS V14.01,2013-07-31 15:53:00,
2013-07-31 11:58:00,70.4,66.7,30.11,SSE,150,0.0,0.0,88,0.00,,---,0.00,VWS V14.01,2013-07-31 15:58:00,
2013-07-31 12:03:00,70.3,66.6,30.11,SSE,150,0.0,0.0,88,0.00,,---,0.00,VWS V14.01,2013-07-31 16:03:00,
2013-07-31 12:08:00,70.2,66.5,30.11,SSE,150,0.0,0.0,88,0.00,,---,0.00,VWS V14.01,2013-07-31 16:08:00,
2013-07-31 12:13:00,70.1,66.4,30.11,SSE,150,0.0,0.0,88,0.00,,---,0.00,VWS V14.01,2013-07-31 16:13:00,
2013-07-31 12:18:00,70.0,66.3,30.11,SSE,150,0.0,0.0,88,0.00,,---,0.00,VWS V14.01,2013-07-31 16:18:00,
2013-07-31 12:23:00,70.0,66.6,30.11,SSE,150,0.0,0.0,89,0.00,,---,0.00,VWS V14.01,2013-07-31 16:23:00,
2013-07-31 12:28:00,70.0,66.6,30.11,SSE,149,0.0,0.0,89,0.00,,---,0.00,VWS V14.01,2013-07-31 16:28:00,
2013-07-31 12:33:00,70.0,66.6,30.10,SSE,150,0.0,0.0,89,0.00,,---,0.00,VWS V14.01,2013-07-31 16:33:00,
2013-07-31 12:38:00,69.9,66.5,30.10,SSE,150,0.0,0.0,89,0.00,,---,0.00,VWS V14.01,2013-07-31 16:38:00,
2013-07-31 12:43:00,69.9,66.5,30.10,SSE,149,0.0,0.0,89,0.00,,---,0.00,VWS V14.01,2013-07-31 16:43:00,
2013-07-31 12:49:00,69.9,66.5,30.10,SSE,149,0.0,0.0,89,0.00,,---,0.00,VWS V14.01,2013-07-31 16:49:00,
2013-07-31 12:54:00,70.0,66.6,30.10,SSE,150,0.0,0.0,89,0.00,,---,0.00,VWS V14.01,2013-07-31 16:54:00,
2013-07-31 12:59:00,70.1,66.7,30.10,SSE,149,0.0,0.0,89,0.00,,---,0.00,VWS V14.01,2013-07-31 16:59:00,
2013-07-31 13:04:00,70.2,66.8,30.10,SSE,150,0.0,0.0,89,0.00,,---,0.00,VWS V14.01,2013-07-31 17:04:00,
2013-07-31 13:09:00,70.3,66.9,30.10,SSE,149,0.0,0.0,89,0.00,,---,0.00,VWS V14.01,2013-07-31 17:09:00,
2013-07-31 13:14:00,70.3,66.9,30.09,SSE,149,0.0,0.0,89,0.00,,---,0.00,VWS V14.01,2013-07-31 17:14:00,
2013-07-31 13:19:00,70.4,67.0,30.09,SE,139,0.0,0.0,89,0.00,,---,0.00,VWS V14.01,2013-07-31 17:19:00,
2013-07-31 13:24:00,70.4,67.0,30.09,SE,139,0.0,0.0,89,0.00,,---,0.00,VWS V14.01,2013-07-31 17:24:00,
2013-07-31 13:29:00,70.5,67.1,30.09,SE,139,0.0,0.0,89,0.00,,---,0.00,VWS V14.01,2013-07-31 17:29:00,
2013-07-31 13:34:00,70.6,67.2,30.09,SE,139,0.0,0.0,89,0.00,,---,0.00,VWS V14.01,2013-07-31 17:34:00,
2013-07-31 13:39:00,70.8,67.1,30.09,SE,141,0.0,0.0,88,0.00,,---,0.00,VWS V14.01,2013-07-31 17:39:00,
2013-07-31 13:44:00,70.9,67.2,30.09,SE,141,0.0,0.0,88,0.00,,---,0.00,VWS V14.01,2013-07-31 17:44:00,
2013-07-31 13:49:00,71.0,67.3,30.09,SE,143,0.0,0.0,88,0.00,,---,0.00,VWS V14.01,2013-07-31 17:49:00,
2013-07-31 13:55:00,71.1,67.4,30.08,SE,139,0.0,0.0,88,0.00,,---,0.00,VWS V14.01,2013-07-31 17:55:00,
2013-07-31 14:00:00,71.1,67.0,30.08,SE,139,0.0,0.0,87,0.00,,---,0.00,VWS V14.01,2013-07-31 18:00:00,
2013-07-31 14:05:00,71.3,67.2,30.08,SE,139,0.0,0.0,87,0.00,,---,0.00,VWS V14.01,2013-07-31 18:05:00,
2013-07-31 14:10:00,71.4,67.7,30.08,SE,139,0.0,0.0,88,0.00,,---,0.00,VWS V14.01,2013-07-31 18:10:00,
2013-07-31 14:15:00,71.6,67.9,30.08,SE,138,0.0,0.0,88,0.00,,---,0.00,VWS V14.01,2013-07-31 18:15:00,
2013-07-31 14:20:00,71.9,67.8,30.08,SE,139,0.0,0.0,87,0.00,,---,0.00,VWS V14.01,2013-07-31 18:20:00,
2013-07-31 14:25:00,72.0,67.9,30.08,SE,138,0.0,0.0,87,0.00,,---,0.00,VWS V14.01,2013-07-31 18:25:00,
2013-07-31 14:30:00,72.2,68.1,30.08,SE,139,0.0,0.0,87,0.00,,---,0.00,VWS V14.01,2013-07-31 18:30:00,
2013-07-31 14:35:00,72.3,68.2,30.08,SE,139,0.0,0.0,87,0.00,,---,0.00,VWS V14.01,2013-07-31 18:35:00,
2013-07-31 14:36:00,72.3,68.2,30.08,SE,139,0.0,0.0,87,0.00,,---,0.00,VWS V14.01,2013-07-31 18:36:00,
2013-07-31 14:41:00,72.3,68.2,30.08,SE,137,0.0,0.0,87,0.00,,---,0.00,VWS V14.01,2013-07-31 18:41:00,
2013-07-31 14:46:00,72.4,68.3,30.08,SE,135,0.0,0.0,87,0.00,,---,0.00,VWS V14.01,2013-07-31 18:46:00,
2013-07-31 14:51:00,72.6,68.8,30.08,SE,136,0.0,0.0,88,0.00,,---,0.00,VWS V14.01,2013-07-31 18:51:00,
2013-07-31 14:57:00,72.8,68.7,30.08,SE,136,0.0,0.0,87,0.00,,---,0.00,VWS V14.01,2013-07-31 18:57:00,
2013-07-31 15:02:00,73.0,68.9,30.07,SE,136,0.0,0.0,87,0.00,,---,0.00,VWS V14.01,2013-07-31 19:02:00,
2013-07-31 15:07:00,73.1,69.0,30.07,SE,136,0.0,0.0,87,0.00,,---,0.00,VWS V14.01,2013-07-31 19:07:00,
2013-07-31 15:12:00,73.1,68.7,30.07,SE,136,0.0,0.0,86,0.00,,---,0.00,VWS V14.01,2013-07-31 19:12:00,
2013-07-31 15:17:00,73.1,68.7,30.07,ESE,114,0.0,0.0,86,0.00,,---,0.00,VWS V14.01,2013-07-31 19:17:00,
2013-07-31 15:22:00,73.1,68.7,30.07,ESE,110,0.0,0.0,86,0.00,,---,0.00,VWS V14.01,2013-07-31 19:22:00,
2013-07-31 15:27:00,73.2,68.8,30.07,ESE,110,0.0,0.0,86,0.00,,---,0.00,VWS V14.01,2013-07-31 19:27:00,
2013-07-31 15:32:00,73.4,69.3,30.06,ESE,110,0.0,0.0,87,0.00,,---,0.00,VWS V14.01,2013-07-31 19:32:00,
2013-07-31 15:37:00,73.6,68.8,30.06,SSW,203,0.0,0.0,85,0.00,,---,0.00,VWS V14.01,2013-07-31 19:37:00,
2013-07-31 15:43:00,74.0,69.6,30.06,SSE,156,0.0,0.0,86,0.00,,---,0.00,VWS V14.01,2013-07-31 19:43:00,
2013-07-31 15:48:00,74.1,69.0,30.06,ENE,73,0.0,0.0,84,0.00,,---,0.00,VWS V14.01,2013-07-31 19:48:00,
2013-07-31 15:53:00,74.2,68.7,30.06,East,84,0.0,1.0,83,0.00,,---,0.00,VWS V14.01,2013-07-31 19:53:00,
2013-07-31 15:58:00,74.1,69.0,30.05,ENE,78,0.0,0.0,84,0.00,,---,0.00,VWS V14.01,2013-07-31 19:58:00,
2013-07-31 16:03:00,74.2,68.7,30.05,ENE,75,0.0,0.0,83,0.00,,---,0.00,VWS V14.01,2013-07-31 20:03:00,
2013-07-31 16:08:00,74.4,68.9,30.05,East,79,0.0,0.0,83,0.00,,---,0.00,VWS V14.01,2013-07-31 20:08:00,
2013-07-31 16:13:00,74.5,69.0,30.05,NNE,30,0.0,0.0,83,0.00,,---,0.00,VWS V14.01,2013-07-31 20:13:00,
2013-07-31 16:19:00,74.4,69.3,30.05,ENE,71,0.0,0.0,84,0.00,,---,0.00,VWS V14.01,2013-07-31 20:19:00,
2013-07-31 16:24:00,74.4,69.6,30.05,ENE,71,0.0,0.0,85,0.00,,---,0.00,VWS V14.01,2013-07-31 20:24:00,
2013-07-31 16:29:00,74.6,69.4,30.05,NNW,343,0.0,1.0,84,0.00,,---,0.00,VWS V14.01,2013-07-31 20:29:00,
2013-07-31 16:34:00,74.8,69.3,30.05,SE,142,0.0,0.0,83,0.00,,---,0.00,VWS V14.01,2013-07-31 20:34:00,
2013-07-31 16:39:00,74.8,68.6,30.04,SE,142,0.0,0.0,81,0.00,,---,0.00,VWS V14.01,2013-07-31 20:39:00,
2013-07-31 16:44:00,75.0,69.1,30.04,ESE,106,0.0,0.0,82,0.00,,---,0.00,VWS V14.01,2013-07-31 20:44:00,
2013-07-31 16:49:00,75.2,68.6,30.04,NNE,15,0.0,0.0,80,0.00,,---,0.00,VWS V14.01,2013-07-31 20:49:00,
2013-07-31 16:55:00,75.5,68.9,30.04,SE,141,0.0,0.0,80,0.00,,---,0.00,VWS V14.01,2013-07-31 20:55:00,
2013-07-31 17:00:00,75.3,69.1,30.04,East,98,0.0,0.0,81,0.00,,---,0.00,VWS V14.01,2013-07-31 21:00:00,
2013-07-31 17:05:00,75.0,68.4,30.03,SE,132,0.0,0.0,80,0.00,,---,0.00,VWS V14.01,2013-07-31 21:05:00,
2013-07-31 17:10:00,74.8,68.2,30.03,SE,132,0.0,0.0,80,0.00,,---,0.00,VWS V14.01,2013-07-31 21:10:00,
2013-07-31 17:15:00,74.6,67.7,30.03,SE,146,0.0,0.0,79,0.00,,---,0.00,VWS V14.01,2013-07-31 21:15:00,
2013-07-31 17:20:00,74.4,67.5,30.03,South,184,0.0,1.0,79,0.00,,---,0.00,VWS V14.01,2013-07-31 21:20:00,
2013-07-31 17:25:00,74.4,68.2,30.03,South,184,0.0,0.0,81,0.00,,---,0.00,VWS V14.01,2013-07-31 21:25:00,
2013-07-31 17:30:00,74.6,68.0,30.03,SSE,155,0.0,0.0,80,0.00,,---,0.00,VWS V14.01,2013-07-31 21:30:00,
2013-07-31 17:35:00,74.6,68.4,30.03,ESE,113,0.0,0.0,81,0.00,,---,0.00,VWS V14.01,2013-07-31 21:35:00,
2013-07-31 17:41:00,74.4,68.2,30.03,SE,133,0.0,0.0,81,0.00,,---,0.00,VWS V14.01,2013-07-31 21:41:00,
2013-07-31 17:46:00,74.2,68.0,30.02,ESE,116,0.0,0.0,81,0.00,,---,0.00,VWS V14.01,2013-07-31 21:46:00,
2013-07-31 17:51:00,74.0,67.8,30.02,SE,146,0.0,0.0,81,0.00,,---,0.00,VWS V14.01,2013-07-31 21:51:00,
2013-07-31 17:56:00,74.0,67.4,30.02,SE,133,0.0,0.0,80,0.00,,---,0.00,VWS V14.01,2013-07-31 21:56:00,
2013-07-31 18:01:00,73.6,67.1,30.02,ENE,75,0.0,2.0,80,0.00,,---,0.00,VWS V14.01,2013-07-31 22:01:00,
2013-07-31 18:06:00,73.2,66.3,30.02,ESE,105,0.0,0.0,79,0.00,,---,0.00,VWS V14.01,2013-07-31 22:06:00,
2013-07-31 18:11:00,72.9,66.7,30.02,ESE,104,0.0,0.0,81,0.00,,---,0.00,VWS V14.01,2013-07-31 22:11:00,
2013-07-31 18:17:00,72.8,67.0,30.01,ESE,104,0.0,0.0,82,0.00,,---,0.00,VWS V14.01,2013-07-31 22:17:00,
2013-07-31 18:22:00,72.6,67.2,30.01,SE,138,0.0,0.0,83,0.00,,---,0.00,VWS V14.01,2013-07-31 22:22:00,
2013-07-31 18:27:00,72.3,66.8,30.01,SE,138,0.0,0.0,83,0.00,,---,0.00,VWS V14.01,2013-07-31 22:27:00,
2013-07-31 18:32:00,72.1,66.7,30.01,SE,138,0.0,0.0,83,0.00,,---,0.00,VWS V14.01,2013-07-31 22:32:00,
2013-07-31 18:37:00,71.9,66.8,30.01,SE,139,0.0,0.0,84,0.00,,---,0.00,VWS V14.01,2013-07-31 22:37:00,
2013-07-31 18:42:00,71.8,66.4,30.01,SE,138,0.0,0.0,83,0.00,,---,0.00,VWS V14.01,2013-07-31 22:42:00,
2013-07-31 18:47:00,71.8,66.7,30.01,SE,138,0.0,0.0,84,0.00,,---,0.00,VWS V14.01,2013-07-31 22:47:00,
2013-07-31 18:52:00,71.8,66.7,30.01,SE,139,0.0,0.0,84,0.00,,---,0.00,VWS V14.01,2013-07-31 22:52:00,
2013-07-31 18:57:00,71.8,66.7,30.01,SE,138,0.0,0.0,84,0.00,,---,0.00,VWS V14.01,2013-07-31 22:57:00,
2013-07-31 19:02:00,71.8,66.7,30.01,SE,139,0.0,0.0,84,0.00,,---,0.00,VWS V14.01,2013-07-31 23:02:00,
2013-07-31 19:07:00,71.8,66.7,30.01,SE,139,0.0,0.0,84,0.00,,---,0.00,VWS V14.01,2013-07-31 23:07:00,
2013-07-31 19:12:00,71.7,66.9,30.01,SE,139,0.0,0.0,85,0.00,,---,0.00,VWS V14.01,2013-07-31 23:12:00,
2013-07-31 19:17:00,71.6,66.9,30.01,SE,138,0.0,0.0,85,0.00,,---,0.00,VWS V14.01,2013-07-31 23:17:00,
2013-07-31 19:22:00,71.5,66.8,30.01,SE,139,0.0,0.0,85,0.00,,---,0.00,VWS V14.01,2013-07-31 23:22:00,
2013-07-31 19:27:00,71.4,67.0,30.00,SE,138,0.0,0.0,86,0.00,,---,0.00,VWS V14.01,2013-07-31 23:27:00,
2013-07-31 19:33:00,71.3,66.9,30.00,SE,136,0.0,0.0,86,0.00,,---,0.00,VWS V14.01,2013-07-31 23:33:00,
2013-07-31 19:38:00,71.0,66.9,30.00,SE,135,0.0,0.0,87,0.00,,---,0.00,VWS V14.01,2013-07-31 23:38:00,
2013-07-31 19:43:00,70.8,66.7,30.00,SE,135,0.0,0.0,87,0.00,,---,0.00,VWS V14.01,2013-07-31 23:43:00,
2013-07-31 19:48:00,70.7,67.0,30.00,SE,137,0.0,0.0,88,0.00,,---,0.00,VWS V14.01,2013-07-31 23:48:00,
2013-07-31 19:53:00,70.6,66.9,30.00,SE,136,0.0,0.0,88,0.00,,---,0.00,VWS V14.01,2013-07-31 23:53:00,
2013-07-31 19:58:00,70.5,66.8,30.00,SE,137,0.0,0.0,88,0.00,,---,0.00,VWS V14.01,2013-07-31 23:58:00,
2013-07-31 20:03:00,70.5,66.8,30.00,SE,136,0.0,0.0,88,0.00,,---,0.00,VWS V14.01,2013-08-01 00:03:00,
2013-07-31 20:08:00,70.4,66.7,30.00,SE,137,0.0,0.0,88,0.00,,---,0.00,VWS V14.01,2013-08-01 00:08:00,
2013-07-31 20:13:00,70.3,66.6,30.00,ESE,118,0.0,0.0,88,0.00,,---,0.00,VWS V14.01,2013-08-01 00:13:00,
2013-07-31 20:18:00,70.3,66.6,30.00,ESE,118,0.0,0.0,88,0.00,,---,0.00,VWS V14.01,2013-08-01 00:18:00,
2013-07-31 20:23:00,70.2,66.2,30.01,NNW,338,0.0,1.0,87,0.00,,---,0.00,VWS V14.01,2013-08-01 00:23:00,
2013-07-31 20:28:00,70.5,66.4,30.01,NW,319,0.0,0.0,87,0.00,,---,0.00,VWS V14.01,2013-08-01 00:28:00,
2013-07-31 20:34:00,70.4,66.0,30.01,NW,319,0.0,0.0,86,0.00,,---,0.00,VWS V14.01,2013-08-01 00:34:00,
2013-07-31 20:39:00,70.0,65.6,30.01,NW,312,0.0,2.0,86,0.00,,---,0.00,VWS V14.01,2013-08-01 00:39:00,
2013-07-31 20:44:00,69.6,65.6,30.01,WNW,290,1.0,1.0,87,0.00,,---,0.00,VWS V14.01,2013-08-01 00:44:00,
2013-07-31 20:49:00,68.9,65.5,30.01,NNW,328,1.0,1.0,89,0.00,,---,0.00,VWS V14.01,2013-08-01 00:49:00,
2013-07-31 20:54:00,68.5,65.8,30.01,ESE,117,0.0,0.0,91,0.00,,---,0.00,VWS V14.01,2013-08-01 00:54:00,
2013-07-31 20:59:00,68.2,65.8,30.01,NNW,335,0.0,0.0,92,0.01,,---,0.01,VWS V14.01,2013-08-01 00:59:00,
2013-07-31 21:04:00,67.9,65.5,30.00,NNW,334,0.0,0.0,92,0.01,,---,0.01,VWS V14.01,2013-08-01 01:04:00,
2013-07-31 21:09:00,67.6,65.5,30.00,NNW,334,0.0,0.0,93,0.01,,---,0.01,VWS V14.01,2013-08-01 01:09:00,
2013-07-31 21:14:00,67.3,65.2,30.00,NNW,334,0.0,0.0,93,0.01,,---,0.01,VWS V14.01,2013-08-01 01:14:00,
2013-07-31 21:19:00,67.1,65.3,30.01,NE,34,0.0,1.0,94,0.01,,---,0.01,VWS V14.01,2013-08-01 01:19:00,
2013-07-31 21:24:00,67.0,65.2,30.01,NNE,24,0.0,0.0,94,0.01,,---,0.01,VWS V14.01,2013-08-01 01:24:00,
2013-07-31 21:29:00,66.8,65.0,30.01,ENE,66,0.0,0.0,94,0.01,,---,0.01,VWS V14.01,2013-08-01 01:29:00,
2013-07-31 21:34:00,66.6,64.8,30.01,ENE,67,0.0,0.0,94,0.01,,---,0.01,VWS V14.01,2013-08-01 01:34:00,
2013-07-31 21:39:00,66.6,65.1,30.01,East,81,0.0,0.0,95,0.01,,---,0.01,VWS V14.01,2013-08-01 01:39:00,
2013-07-31 21:45:00,66.4,64.9,30.01,ESE,105,0.0,0.0,95,0.01,,---,0.01,VWS V14.01,2013-08-01 01:45:00,
2013-07-31 21:50:00,66.3,65.1,30.01,ESE,108,0.0,0.0,96,0.01,,---,0.01,VWS V14.01,2013-08-01 01:50:00,
2013-07-31 21:55:00,66.1,64.9,30.01,ESE,112,0.0,0.0,96,0.01,,---,0.01,VWS V14.01,2013-08-01 01:55:00,
2013-07-31 22:00:00,66.0,64.8,30.01,ESE,115,0.0,0.0,96,0.00,,---,0.01,VWS V14.01,2013-08-01 02:00:00,
2013-07-31 22:05:00,66.0,64.8,30.01,East,98,0.0,1.0,96,0.00,,---,0.01,VWS V14.01,2013-08-01 02:05:00,
2013-07-31 22:10:00,66.0,65.1,30.01,ESE,113,0.0,1.0,97,0.00,,---,0.01,VWS V14.01,2013-08-01 02:10:00,
2013-07-31 22:15:00,66.0,65.1,30.01,ESE,102,0.0,0.0,97,0.00,,---,0.01,VWS V14.01,2013-08-01 02:15:00,
2013-07-31 22:20:00,66.0,65.1,30.01,ESE,107,0.0,1.0,97,0.00,,---,0.01,VWS V14.01,2013-08-01 02:20:00,
2013-07-31 22:25:00,65.9,65.0,30.01,ESE,106,0.0,0.0,97,0.00,,---,0.01,VWS V14.01,2013-08-01 02:25:00,
2013-07-31 22:30:00,65.9,65.0,30.01,SE,127,0.0,0.0,97,0.00,,---,0.01,VWS V14.01,2013-08-01 02:30:00,
2013-07-31 22:35:00,65.9,65.0,30.01,ESE,111,0.0,1.0,97,0.00,,---,0.01,VWS V14.01,2013-08-01 02:35:00,
2013-07-31 22:40:00,65.9,65.0,30.00,ESE,107,0.0,1.0,97,0.00,,---,0.01,VWS V14.01,2013-08-01 02:40:00,
2013-07-31 22:45:00,65.9,65.0,30.01,ESE,109,0.0,0.0,97,0.00,,---,0.01,VWS V14.01,2013-08-01 02:45:00,
2013-07-31 22:50:00,66.0,65.1,30.00,ESE,112,0.0,0.0,97,0.00,,---,0.01,VWS V14.01,2013-08-01 02:50:00,
2013-07-31 22:55:00,66.0,65.1,30.00,SE,125,0.0,1.0,97,0.00,,---,0.01,VWS V14.01,2013-08-01 02:55:00,
2013-07-31 23:01:00,66.1,65.2,30.00,SE,146,1.0,1.0,97,0.00,,---,0.01,VWS V14.01,2013-08-01 03:01:00,
2013-07-31 23:06:00,66.2,65.6,30.00,ESE,115,0.0,0.0,98,0.00,,---,0.01,VWS V14.01,2013-08-01 03:06:00,
2013-07-31 23:11:00,66.3,65.7,30.00,ENE,67,1.0,2.0,98,0.00,,---,0.01,VWS V14.01,2013-08-01 03:11:00,
2013-07-31 23:16:00,66.3,65.7,30.00,East,101,0.0,0.0,98,0.00,,---,0.01,VWS V14.01,2013-08-01 03:16:00,
2013-07-31 23:21:00,66.4,65.8,30.00,SE,130,0.0,0.0,98,0.00,,---,0.01,VWS V14.01,2013-08-01 03:21:00,
2013-07-31 23:26:00,66.4,65.8,29.99,ESE,114,0.0,1.0,98,0.00,,---,0.01,VWS V14.01,2013-08-01 03:26:00,
2013-07-31 23:31:00,66.4,65.8,29.99,ESE,103,0.0,0.0,98,0.00,,---,0.01,VWS V14.01,2013-08-01 03:31:00,
2013-07-31 23:36:00,66.5,65.9,29.99,ESE,119,0.0,1.0,98,0.00,,---,0.01,VWS V14.01,2013-08-01 03:36:00,
2013-07-31 23:41:00,66.5,65.9,29.99,East,101,0.0,0.0,98,0.00,,---,0.01,VWS V14.01,2013-08-01 03:41:00,
2013-07-31 23:47:00,66.5,65.9,29.99,ESE,114,0.0,0.0,98,0.00,,---,0.01,VWS V14.01,2013-08-01 03:47:00,
2013-07-31 23:52:00,66.5,65.9,29.99,ESE,120,0.0,0.0,98,0.00,,---,0.01,VWS V14.01,2013-08-01 03:52:00,
2013-07-31 23:57:00,66.5,65.9,29.99,ESE,121,0.0,0.0,98,0.00,,---,0.01,VWS V14.01,2013-08-01 03:57:00,